Seattle, WA
on Friday, November 30, 2012

Friday
Previous Day Next Day
Daily Summary
 ActualAverageRecord
Temperature
Mean Temperature °F 42°F  
Max Temperature 59°F 48°F 59°F (2012)
Min Temperature 46°F 37°F 21°F (1985)
Degree Days
Heating Degree Days 12 23  
Month to date heating degree days 534 587  
Since 1 July heating degree days 1027 1183  
Cooling Degree Days 0 0  
Month to date cooling degree days 0 0  
Year to date cooling degree days 177 189  
Growing Degree Days2 (Base °F )  
Moisture
Dew Point 44°F   
Average Humidity 75    
Maximum Humidity 93    
Minimum Humidity 57    
Precipitation
Precipitation 1.40 in 0.22 in 1.50 in (1964)
Month to date precipitation 8.28 6.57  
Year to date precipitation 41.41 32.14  
Snow
Snow 0.00 in in 1.00 in (1950)
Month to date snowfall 0.0  
Since 1 July snowfall 0.0  
Snow Depth 0.00 in   
Wind
Wind Speed 10 mph   
Max Wind Speed 23 mph   
Max Gust Speed 30 mph   
Visibility 8 miles   
Events Rain   

Key: T is trace of precipitation, MM is missing value
Source: NWS Daily Summary
Time(PST)TemperatureDew PointHumidity Pressure Visibility Wind DirectionWind SpeedGust SpeedPrecipitationEvents Conditions
12:53 AM 46.9°F 41.0°F 80% 29.47 in 6.0 miles ESE 9.2 mph - 0.09 in Rain Rain
1:53 AM 46.9°F 42.1°F 83% 29.45 in 10.0 miles East 9.2 mph - 0.14 in Rain Light Rain
2:53 AM 48.0°F 42.1°F 80% 29.43 in 10.0 miles East 9.2 mph - 0.00 in   Overcast
3:53 AM 46.4°F 42.8°F 87% 29.39 in 7.0 miles East 10.4 mph - N/A Rain Light Rain
4:53 AM 46.9°F 42.1°F 83% 29.42 in 10.0 miles ESE 11.5 mph - 0.00 in   Mostly Cloudy
5:53 AM 48.0°F 42.1°F 80% 29.39 in 10.0 miles ESE 6.9 mph - N/A   Overcast
6:53 AM 48.0°F 42.1°F 80% 29.40 in 10.0 miles SSE 11.5 mph - 0.01 in   Overcast
7:53 AM 51.1°F 43.0°F 74% 29.43 in 10.0 miles South 10.4 mph - 0.00 in   Overcast
8:53 AM 51.1°F 44.1°F 77% 29.44 in 10.0 miles SSE 9.2 mph - 0.00 in   Mostly Cloudy
9:53 AM 53.1°F 44.1°F 71% 29.44 in 10.0 miles SSE 12.7 mph - N/A   Mostly Cloudy
10:53 AM 54.0°F 43.0°F 66% 29.45 in 10.0 miles South 11.5 mph - 0.00 in Rain Light Rain
11:53 AM 57.0°F 42.1°F 57% 29.44 in 10.0 miles South 16.1 mph 27.6 mph 0.00 in   Mostly Cloudy
12:53 PM 57.9°F 42.1°F 56% 29.43 in 10.0 miles South 12.7 mph 25.3 mph N/A   Mostly Cloudy
1:53 PM 55.0°F 44.1°F 67% 29.45 in 9.0 miles South 15.0 mph 27.6 mph 0.00 in Rain Light Rain
2:53 PM 54.0°F 45.0°F 72% 29.46 in 9.0 miles South 15.0 mph - 0.01 in Rain Light Rain
3:53 PM 51.1°F 46.9°F 86% 29.47 in 7.0 miles SSE 8.1 mph - 0.05 in Rain Light Rain
4:53 PM 51.1°F 46.9°F 86% 29.48 in 5.0 miles SW 8.1 mph - 0.10 in Rain Rain
5:19 PM 50.0°F 46.4°F 87% 29.46 in 6.0 miles SW 11.5 mph - 0.14 in Rain Rain
5:45 PM 50.0°F 46.4°F 87% 29.46 in 5.0 miles South 9.2 mph - 0.20 in Rain Rain
5:53 PM 50.0°F 46.0°F 86% 29.49 in 6.0 miles SSW 10.4 mph - 0.21 in Rain Light Rain
6:53 PM 48.9°F 46.0°F 90% 29.49 in 6.0 miles SSW 6.9 mph - 0.17 in Rain Rain
7:53 PM 48.0°F 45.0°F 89% 29.47 in 6.0 miles SE 5.8 mph - 0.09 in Rain Rain
8:17 PM 48.2°F 44.6°F 87% 29.45 in 4.0 miles ESE 6.9 mph - 0.06 in Rain Rain
8:53 PM 48.9°F 46.0°F 90% 29.47 in 5.0 miles ESE 9.2 mph - 0.16 in Rain Rain
9:00 PM 48.2°F 46.4°F 93% 29.44 in 6.0 miles ESE 8.1 mph - 0.01 in Rain Rain
9:53 PM 50.0°F 46.0°F 86% 29.43 in 8.0 miles ESE 9.2 mph - 0.12 in Rain Light Rain
10:44 PM 48.2°F 44.6°F 87% 29.42 in 3.0 miles ESE 10.4 mph - 0.12 in Rain Rain
10:53 PM 48.9°F 45.0°F 86% 29.44 in 3.0 miles SSE 9.2 mph - 0.15 in Rain Rain
11:53 PM 48.9°F 46.0°F 90% 29.44 in 7.0 miles South 11.5 mph - 0.08 in Rain Light Rain
Moon Phase
Nov. 30 Dec. 06 Dec. 13 Dec. 20 Dec. 28
Sunrise:07:35 AM (PST) Moon Rise:06:21 PM (PST)11/30
Sunset:04:20 PM (PST) Moon Set:09:10 AM (PST)11/30

Copyright © 2014 The Weather Underground, Inc.